Satellite-Ground Cal/Val Site Overpasses Predictions

Prediction of Satellite NPP Overpassing Cal/Val Site: Antarctic Dome C

Ground Cal/Val Site Location: Latitude: -75.10, Longitude: 123.35; Satellite-Ground Site NADIR distance within 100 km.

Table of predicted overpasses for the next 14.0 days since TLE Epoch: 8/20/2022
Interval Starting Time Ending Time Minimum Distance Time Minimum Distance (km)
1 08/20/2022 07:32:14 08/20/2022 07:32:44 08/20/2022 07:32:29 1.49
2 08/23/2022 14:55:43 08/23/2022 14:56:12 08/23/2022 14:55:57 24.21
3 08/24/2022 14:37:01 08/24/2022 14:37:17 08/24/2022 14:37:09 83.07
4 08/25/2022 07:38:34 08/25/2022 07:39:01 08/25/2022 07:38:48 37.54
5 08/26/2022 07:19:49 08/26/2022 07:20:09 08/26/2022 07:19:59 72.30
6 08/28/2022 15:02:06 08/28/2022 15:02:29 08/28/2022 15:02:17 61.39
7 08/29/2022 14:43:15 08/29/2022 14:43:41 08/29/2022 14:43:28 47.88
8 08/30/2022 07:44:57 08/30/2022 07:45:17 08/30/2022 07:45:07 72.94
9 08/31/2022 07:26:05 08/31/2022 07:26:33 08/31/2022 07:26:19 34.76
